| time (UTC) | temp F | wind direction | speed MPH | gust MPH | rain 1hr in | rain 24hr in | rain mn in | humidity % | barometer mb |
| 20260901023519 | 57 | 0.0 | 3.0 | 0.00 | 0.11 | 0.01 | 77 | 1023.4 | |
| 20260901022518 | 56 | 0.0 | 2.0 | 0.00 | 0.11 | 0.01 | 81 | 1023.6 | |
| 20260901021518 | 56 | 248 | 1.0 | 6.0 | 0.00 | 0.11 | 0.01 | 82 | 1023.7 |
| 20260901020518 | 55 | 248 | 2.0 | 8.0 | 0.00 | 0.11 | 0.01 | 83 | 1023.7 |
| 20260901015558 | 55 | 270 | 1.0 | 9.0 | 0.00 | 0.11 | 0.01 | 85 | 1023.7 |
| 20260901014518 | 54 | 293 | 1.0 | 4.0 | 0.00 | 0.11 | 0.01 | 89 | 1023.7 |
| 20260901013519 | 53 | 0.0 | 4.0 | 0.00 | 0.11 | 0.01 | 94 | 1023.6 | |
| 20260901012518 | 52 | 0.0 | 4.0 | 0.00 | 0.11 | 0.01 | 95 | 1023.8 | |
| 20260901011538 | 52 | 270 | 1.0 | 5.0 | 0.00 | 0.11 | 0.01 | 95 | 1023.8 |
| 20260901010539 | 51 | 0.0 | 1.0 | 0.00 | 0.11 | 0.01 | 95 | 1023.8 | |
| 20260901005518 | 50 | 0.0 | 3.0 | 0.00 | 0.11 | 0.01 | 95 | 1023.9 | |
| 20260901004518 | 50 | 0.0 | 1.0 | 0.00 | 0.11 | 0.01 | 95 | 1023.9 | |
| 20260901003518 | 50 | 0.0 | 2.0 | 0.00 | 0.11 | 0.01 | 95 | 1023.9 | |
| 20260901002518 | 49 | 0.0 | 1.0 | 0.00 | 0.11 | 0.01 | 95 | 1023.9 | |
| 20260901001518 | 49 | 0.0 | 1.0 | 0.01 | 0.11 | 0.01 | 95 | 1023.9 | |
| 20260901000518 | 49 | 0.0 | 3.0 | 0.01 | 0.11 | 0.01 | 95 | 1023.8 | |
| 20260831235518 | 48 | 0.0 | 4.0 | 0.01 | 0.11 | 0.01 | 95 | 1023.7 | |
| 20260831234538 | 48 | 0.0 | 0.0 | 0.01 | 0.11 | 0.01 | 95 | 1023.6 | |
| 20260831233518 | 48 | 0.0 | 1.0 | 0.01 | 0.11 | 0.01 | 95 | 1023.6 | |
| 20260831232518 | 47 | 0.0 | 0.0 | 0.01 | 0.11 | 0.01 | 95 | 1023.6 | |
| 20260831231518 | 47 | 0.0 | 0.0 | 0.00 | 0.10 | 0.00 | 95 | 1023.5 | |
| 20260831230518 | 47 | 0.0 | 1.0 | 0.00 | 0.10 | 0.00 | 95 | 1023.4 | |
| 20260831225518 | 47 | 0.0 | 1.0 | 0.00 | 0.10 | 0.00 | 95 | 1023.3 | |
| 20260831224518 | 47 | 0.0 | 0.0 | 0.00 | 0.10 | 0.00 | 95 | 1023.2 | |
| 20260831223517 | 47 | 0.0 | 0.0 | 0.00 | 0.10 | 0.00 | 95 | 1023.0 | |
| 20260831222518 | 47 | 0.0 | 0.0 | 0.00 | 0.10 | 0.00 | 95 | 1022.9 | |
| 20260831221518 | 47 | 0.0 | 0.0 | 0.00 | 0.10 | 0.00 | 95 | 1022.9 | |
| 20260831220518 | 47 | 0.0 | 1.0 | 0.00 | 0.10 | 0.00 | 95 | 1022.8 | |
| 20260831215517 | 47 | 0.0 | 0.0 | 0.00 | 0.10 | 0.00 | 95 | 1022.7 | |
| 20260831214537 | 47 | 0.0 | 0.0 | 0.00 | 0.10 | 0.00 | 95 | 1022.6 | |
| 20260831213518 | 47 | 0.0 | 0.0 | 0.00 | 0.10 | 0.00 | 95 | 1022.5 | |
| 20260831212517 | 47 | 0.0 | 0.0 | 0.00 | 0.10 | 0.00 | 95 | 1022.4 | |
| 20260831211538 | 47 | 0.0 | 0.0 | 0.00 | 0.10 | 0.00 | 95 | 1022.4 | |
| 20260831210518 | 47 | 0.0 | 0.0 | 0.00 | 0.11 | 0.00 | 95 | 1022.3 | |
| 20260831205517 | 47 | 0.0 | 0.0 | 0.00 | 0.11 | 0.00 | 95 | 1022.2 | |
| 20260831204518 | 48 | 0.0 | 0.0 | 0.00 | 0.11 | 0.00 | 95 | 1022.2 | |
| 20260831203518 | 48 | 0.0 | 0.0 | 0.00 | 0.11 | 0.00 | 95 | 1022.2 | |
| 20260831202517 | 48 | 0.0 | 1.0 | 0.00 | 0.11 | 0.00 | 95 | 1022.1 | |
| 20260831201538 | 48 | 0.0 | 0.0 | 0.00 | 0.11 | 0.00 | 95 | 1022.1 | |
| 20260831200517 | 48 | 0.0 | 1.0 | 0.00 | 0.11 | 0.00 | 95 | 1022.0 | |
| 20260831195517 | 47 | 0.0 | 1.0 | 0.00 | 0.11 | 0.00 | 95 | 1022.0 | |
| 20260831194517 | 47 | 0.0 | 0.0 | 0.00 | 0.11 | 0.00 | 95 | 1021.9 | |
| 20260831193537 | 47 | 0.0 | 1.0 | 0.00 | 0.11 | 0.00 | 95 | 1021.8 | |
| 20260831192557 | 47 | 0.0 | 1.0 | 0.00 | 0.11 | 0.00 | 95 | 1021.9 | |
| 20260831191517 | 47 | 0.0 | 2.0 | 0.00 | 0.11 | 0.00 | 95 | 1021.7 | |
| 20260831190518 | 48 | 0.0 | 1.0 | 0.00 | 0.11 | 0.00 | 95 | 1021.9 | |
| 20260831185517 | 47 | 0.0 | 1.0 | 0.00 | 0.11 | 0.00 | 95 | 1021.8 | |
| 20260831184517 | 47 | 0.0 | 0.0 | 0.00 | 0.11 | 0.00 | 95 | 1021.8 | |
| 20260831183518 | 47 | 0.0 | 0.0 | 0.00 | 0.11 | 0.00 | 95 | 1021.8 | |
| 20260831182517 | 47 | 0.0 | 0.0 | 0.00 | 0.11 | 0.00 | 95 | 1021.9 | |
| 20260831181517 | 47 | 0.0 | 0.0 | 0.00 | 0.11 | 0.00 | 95 | 1022.0 | |
| 20260831180520 | 48 | 0.0 | 0.0 | 0.00 | 0.11 | 0.00 | 95 | 1022.0 | |
| 20260831174519 | 48 | 0.0 | 0.0 | 0.00 | 0.11 | 0.00 | 95 | 1022.0 | |
| 20260831173548 | 48 | 0.0 | 0.0 | 0.00 | 0.11 | 0.00 | 95 | 1022.0 | |
| 20260831172523 | 48 | 0.0 | 1.0 | 0.00 | 0.11 | 0.00 | 95 | 1022.0 | |
| 20260831171801 | 48 | 0.0 | 3.0 | 0.00 | 0.11 | 0.00 | 95 | 1022.0 | |
| 20260831170545 | 48 | 0.0 | 0.0 | 0.00 | 0.11 | 0.00 | 95 | 1022.1 | |
| 20260831165518 | 48 | 0.0 | 1.0 | 0.00 | 0.11 | 0.00 | 94 | 1022.0 | |
| 20260831164519 | 49 | 0.0 | 1.0 | 0.00 | 0.11 | 0.00 | 94 | 1022.0 | |
| 20260831163519 | 49 | 0.0 | 0.0 | 0.00 | 0.11 | 0.00 | 95 | 1022.0 | |
| 20260831162539 | 49 | 0.0 | 1.0 | 0.00 | 0.11 | 0.00 | 94 | 1021.9 | |
| 20260831161519 | 49 | 0.0 | 0.0 | 0.00 | 0.11 | 0.00 | 94 | 1021.9 | |
| 20260831160520 | 49 | 0.0 | 0.0 | 0.00 | 0.11 | 0.00 | 94 | 1022.0 | |
| 20260831155517 | 49 | 0.0 | 0.0 | 0.00 | 0.11 | 0.11 | 94 | 1022.0 | |
| 20260831154537 | 50 | 0.0 | 0.0 | 0.00 | 0.11 | 0.11 | 94 | 1022.0 | |
| 20260831153519 | 50 | 0.0 | 0.0 | 0.00 | 0.11 | 0.11 | 94 | 1022.1 | |
| 20260831152517 | 50 | 0.0 | 0.0 | 0.00 | 0.11 | 0.11 | 94 | 1022.2 | |
| 20260831151517 | 50 | 0.0 | 1.0 | 0.01 | 0.11 | 0.11 | 94 | 1022.2 | |
| 20260831150642 | 50 | 0.0 | 0.0 | 0.01 | 0.11 | 0.11 | 94 | 1022.1 | |
| 20260831145517 | 50 | 0.0 | 0.0 | 0.01 | 0.11 | 0.11 | 94 | 1022.2 | |
| 20260831144517 | 50 | 0.0 | 0.0 | 0.02 | 0.11 | 0.11 | 94 | 1022.2 | |
| 20260831143518 | 50 | 0.0 | 0.0 | 0.02 | 0.11 | 0.11 | 94 | 1022.2 | |
| 20260831142517 | 50 | 0.0 | 0.0 | 0.02 | 0.11 | 0.11 | 94 | 1022.1 | |
| 20260831141519 | 50 | 0.0 | 0.0 | 0.02 | 0.10 | 0.10 | 94 | 1022.1 | |
| 20260831140520 | 50 | 0.0 | 0.0 | 0.02 | 0.10 | 0.10 | 94 | 1022.0 | |
| 20260831135540 | 50 | 0.0 | 0.0 | 0.02 | 0.10 | 0.10 | 94 | 1022.2 | |
| 20260831134520 | 50 | 0.0 | 0.0 | 0.02 | 0.09 | 0.09 | 94 | 1022.1 | |
| 20260831133520 | 50 | 0.0 | 0.0 | 0.02 | 0.09 | 0.09 | 94 | 1021.9 | |
| 20260831132539 | 50 | 0.0 | 0.0 | 0.02 | 0.09 | 0.09 | 94 | 1021.7 | |
| 20260831131519 | 50 | 0.0 | 1.0 | 0.01 | 0.09 | 0.09 | 94 | 1021.9 | |
| 20260831130520 | 50 | 248 | 1.0 | 6.0 | 0.01 | 0.09 | 0.09 | 94 | 1021.8 |
| 20260831125519 | 50 | 0.0 | 0.0 | 0.00 | 0.08 | 0.08 | 94 | 1021.8 | |
| 20260831124519 | 50 | 0.0 | 2.0 | 0.00 | 0.08 | 0.08 | 94 | 1021.8 | |
| 20260831123520 | 50 | 0.0 | 1.0 | 0.00 | 0.08 | 0.08 | 94 | 1021.8 | |
| 20260831122519 | 50 | 0.0 | 1.0 | 0.01 | 0.08 | 0.08 | 94 | 1021.5 | |
| 20260831121539 | 50 | 0.0 | 2.0 | 0.01 | 0.08 | 0.08 | 94 | 1021.3 | |
| 20260831120539 | 50 | 0.0 | 2.0 | 0.02 | 0.08 | 0.08 | 94 | 1021.2 | |
| 20260831115539 | 50 | 0.0 | 1.0 | 0.02 | 0.08 | 0.08 | 94 | 1021.2 | |
| 20260831114539 | 50 | 0.0 | 2.0 | 0.04 | 0.08 | 0.08 | 94 | 1021.1 | |
| 20260831113519 | 50 | 0.0 | 0.0 | 0.04 | 0.08 | 0.08 | 94 | 1020.9 | |
| 20260831112518 | 50 | 225 | 1.0 | 4.0 | 0.04 | 0.07 | 0.07 | 93 | 1020.8 |
| 20260831111519 | 49 | 225 | 1.0 | 6.0 | 0.04 | 0.07 | 0.07 | 93 | 1020.9 |
| 20260831110520 | 50 | 225 | 1.0 | 8.0 | 0.03 | 0.06 | 0.06 | 93 | 1020.9 |
| 20260831105519 | 51 | 225 | 3.0 | 11.0 | 0.02 | 0.06 | 0.06 | 93 | 1020.9 |
| 20260831104518 | 51 | 225 | 4.0 | 20.0 | 0.02 | 0.04 | 0.04 | 93 | 1020.7 |
| 20260831103519 | 51 | 225 | 4.0 | 13.0 | 0.02 | 0.04 | 0.04 | 93 | 1020.3 |
| 20260831102519 | 52 | 225 | 2.0 | 9.0 | 0.02 | 0.03 | 0.03 | 93 | 1020.0 |
| 20260831101519 | 52 | 225 | 3.0 | 14.0 | 0.02 | 0.03 | 0.03 | 93 | 1019.8 |
| 20260831100520 | 52 | 248 | 3.0 | 12.0 | 0.02 | 0.03 | 0.03 | 93 | 1019.5 |
| 20260831095519 | 52 | 225 | 3.0 | 11.0 | 0.02 | 0.03 | 0.03 | 93 | 1019.3 |
| 20260831094538 | 52 | 225 | 2.0 | 8.0 | 0.01 | 0.02 | 0.02 | 93 | 1019.1 |
| 20260831093519 | 53 | 225 | 3.0 | 11.0 | 0.01 | 0.02 | 0.02 | 92 | 1018.8 |
| 20260831092518 | 53 | 225 | 4.0 | 11.0 | 0.01 | 0.02 | 0.02 | 92 | 1018.7 |
| 20260831091518 | 53 | 225 | 3.0 | 13.0 | 0.01 | 0.02 | 0.02 | 92 | 1018.4 |
| 20260831090520 | 54 | 225 | 3.0 | 15.0 | 0.01 | 0.02 | 0.02 | 92 | 1018.2 |
| 20260831085538 | 54 | 225 | 2.0 | 9.0 | 0.01 | 0.02 | 0.02 | 92 | 1017.7 |
| 20260831084518 | 54 | 225 | 3.0 | 17.0 | 0.01 | 0.02 | 0.02 | 91 | 1017.3 |
| 20260831083520 | 55 | 225 | 4.0 | 16.0 | 0.01 | 0.02 | 0.02 | 90 | 1016.8 |
| 20260831082538 | 57 | 248 | 4.0 | 14.0 | 0.00 | 0.01 | 0.01 | 87 | 1016.3 |
| 20260831081538 | 59 | 225 | 7.0 | 21.0 | 0.00 | 0.01 | 0.01 | 85 | 1016.1 |
| 20260831080519 | 62 | 225 | 4.0 | 16.0 | 0.00 | 0.01 | 0.01 | 83 | 1015.6 |
| 20260831075519 | 64 | 225 | 7.0 | 20.0 | 0.00 | 0.01 | 0.01 | 80 | 1015.3 |
| 20260831074518 | 65 | 225 | 6.0 | 18.0 | 0.00 | 0.01 | 0.01 | 78 | 1014.9 |
| 20260831073520 | 67 | 225 | 3.0 | 14.0 | 0.00 | 0.01 | 0.01 | 74 | 1014.7 |
| 20260831072518 | 68 | 225 | 2.0 | 11.0 | 0.00 | 0.01 | 0.01 | 69 | 1014.4 |
| 20260831071518 | 69 | 248 | 2.0 | 10.0 | 0.00 | 0.01 | 0.01 | 68 | 1014.4 |
| 20260831070518 | 70 | 225 | 1.0 | 10.0 | 0.00 | 0.01 | 0.01 | 69 | 1014.4 |
| 20260831065518 | 70 | 270 | 2.0 | 8.0 | 0.00 | 0.01 | 0.01 | 69 | 1014.3 |
| 20260831064518 | 70 | 270 | 1.0 | 4.0 | 0.00 | 0.01 | 0.01 | 71 | 1014.4 |
| 20260831063518 | 69 | 270 | 4.0 | 12.0 | 0.00 | 0.01 | 0.01 | 70 | 1014.4 |
| 20260831062518 | 70 | 225 | 2.0 | 8.0 | 0.00 | 0.01 | 0.01 | 69 | 1014.4 |
| 20260831061518 | 70 | 248 | 5.0 | 19.0 | 0.00 | 0.01 | 0.01 | 69 | 1014.4 |
| 20260831060519 | 70 | 225 | 4.0 | 13.0 | 0.00 | 0.01 | 0.01 | 70 | 1014.1 |
| 20260831055538 | 70 | 248 | 4.0 | 13.0 | 0.00 | 0.01 | 0.01 | 70 | 1014.3 |
| 20260831054518 | 69 | 270 | 4.0 | 14.0 | 0.00 | 0.01 | 0.01 | 72 | 1014.3 |
| 20260831053518 | 68 | 225 | 3.0 | 12.0 | 0.00 | 0.01 | 0.01 | 73 | 1014.3 |
| 20260831052518 | 68 | 270 | 2.0 | 11.0 | 0.00 | 0.01 | 0.01 | 74 | 1014.4 |
| 20260831051538 | 68 | 248 | 1.0 | 7.0 | 0.00 | 0.01 | 0.01 | 74 | 1014.1 |
| 20260831050538 | 69 | 248 | 1.0 | 9.0 | 0.00 | 0.01 | 0.01 | 74 | 1014.1 |
| 20260831045518 | 69 | 225 | 2.0 | 7.0 | 0.00 | 0.01 | 0.01 | 73 | 1014.2 |
| 20260831044517 | 69 | 293 | 4.0 | 14.0 | 0.00 | 0.01 | 0.01 | 74 | 1014.2 |
| 20260831043518 | 69 | 270 | 1.0 | 7.0 | 0.00 | 0.01 | 0.01 | 75 | 1014.3 |
| 20260831042518 | 68 | 293 | 2.0 | 8.0 | 0.00 | 0.01 | 0.01 | 77 | 1014.5 |
| 20260831041538 | 67 | 270 | 2.0 | 9.0 | 0.00 | 0.01 | 0.01 | 77 | 1014.6 |
| 20260831040518 | 67 | 248 | 1.0 | 5.0 | 0.00 | 0.01 | 0.01 | 76 | 1014.7 |
| 20260831035518 | 68 | 270 | 3.0 | 10.0 | 0.00 | 0.01 | 0.01 | 73 | 1014.9 |
| 20260831034517 | 69 | 248 | 1.0 | 9.0 | 0.00 | 0.01 | 0.01 | 72 | 1015.0 |
| 20260831033518 | 69 | 248 | 2.0 | 12.0 | 0.00 | 0.01 | 0.01 | 72 | 1014.9 |
| 20260831032518 | 69 | 248 | 1.0 | 5.0 | 0.00 | 0.01 | 0.01 | 72 | 1015.1 |
| 20260831031517 | 68 | 248 | 1.0 | 7.0 | 0.00 | 0.01 | 0.01 | 73 | 1015.1 |
| 20260831030518 | 68 | 270 | 2.0 | 12.0 | 0.00 | 0.01 | 0.01 | 72 | 1015.2 |
| 20260831025517 | 69 | 270 | 1.0 | 5.0 | 0.00 | 0.01 | 0.01 | 73 | 1015.5 |
| 20260831024517 | 68 | 270 | 1.0 | 11.0 | 0.00 | 0.01 | 0.01 | 73 | 1015.6 |